User: anonymous   Login
Location: Jackson
(35.6140°N, 88.8140°W)
Time: 07:38:47
(UTC-06:00)
Language:

ZACube-1 - Orbit

View from above orbital plane
View from above orbital plane
View from above satellite
View from above satellite

Ground track
Ground track

The orbit data is extracted from the following two-line orbital elements,

1 39417U 13066B   19349.74349415 +.00000168 +00000-0 +27377-4 0  9998
2 39417 097.5610 353.1147 0059355 162.2754 198.0549 14.81192259327697
Epoch (UTC): 15 December 2019 17:50:37
Eccentricity: 0.0059355
inclination: 97.5610°
perigee height: 584 km
apogee height: 667 km
right ascension of ascending node: 353.1147°
argument of perigee: 162.2754°
revolutions per day: 14.81192259
mean anomaly at epoch: 198.0549°
orbit number at epoch: 32769

The dashed part of the orbit path shows where the satellite is in the earth's shadow,  

DLR